Theta_e
332 333 332 331 332 333 334 336 335 330 329 331 334 330 326 323 318 315 315 317 318 321 322 319 321 324 328 328 328 328 328 325 326 328 327 324 320 315 316 316 319 318 313 312 313 314 315 315 316 318 321 322 322 321 318 317 316 318 321 321 318 315 314 314 315 318 318 316 312 310 308 308 307 307
333 333 332 332 332 333 335 332 332 336 330 330 329 329 330 328 323 319 315 316 320 319 321 322 320 323 326 328 327 327 327 323 327 328 327 324 319 312 314 315 316 313 312 310 309 312 313 315 317 319 321 322 320 317 316 316 316 320 321 320 319 317 316 317 318 318 316 312 310 309 308 307 307 307
332 331 331 331 331 332 333 332 332 334 333 330 328 329 331 325 324 323 320 316 320 322 319 320 323 323 324 325 323 325 327 325 326 326 325 323 315 314 313 313 313 313 313 310 312 317 316 314 316 319 321 322 320 318 319 319 320 320 320 317 316 318 317 317 318 317 315 312 310 309 309 309 307 307
331 330 329 329 329 331 332 332 333 332 333 332 329 329 327 327 327 325 321 318 318 326 322 321 322 323 320 319 319 320 324 326 322 327 323 319 315 318 314 311 312 312 311 312 317 322 319 318 319 321 322 322 320 320 320 319 320 319 316 313 314 316 315 315 316 317 315 312 310 310 310 310 308 307
330 329 328 328 329 331 331 331 332 331 332 333 331 329 328 326 329 323 320 318 320 323 327 324 321 322 319 317 319 318 319 323 324 320 320 319 320 320 317 314 309 310 310 311 313 314 313 316 323 321 318 320 319 317 316 314 313 316 315 310 310 311 313 313 313 314 315 312 310 312 311 311 309 308
330 330 329 329 330 331 331 332 331 330 331 331 329 329 329 328 329 327 324 321 319 319 322 323 326 321 321 317 319 315 316 318 318 319 319 319 319 320 320 316 312 309 310 310 311 312 311 312 316 314 312 312 312 312 312 312 311 313 309 306 308 312 314 314 311 311 314 313 312 312 312 312 311 309
330 330 329 328 329 331 330 331 330 331 330 329 328 328 328 328 327 328 326 322 320 319 319 322 319 317 318 318 313 313 315 316 317 320 317 314 315 319 318 318 317 307 308 308 310 310 310 311 312 311 311 310 310 309 309 309 308 308 307 303 307 309 310 310 309 308 312 312 313 312 312 311 311 311
330 328 327 328 328 329 327 329 331 330 329 329 327 328 325 326 329 329 327 326 322 320 318 319 317 318 316 315 312 312 311 311 311 315 313 311 311 316 316 316 318 310 307 308 310 310 310 309 310 310 310 310 308 308 309 308 307 306 306 304 304 305 305 305 305 304 306 311 311 313 312 311 310 311
330 327 327 329 328 327 327 327 328 328 329 328 327 326 326 326 326 327 327 326 326 321 319 318 319 317 317 317 313 311 308 307 308 311 306 306 309 315 314 315 316 310 308 309 309 309 309 308 308 309 308 308 307 306 307 306 306 305 305 304 304 303 303 303 303 302 303 303 305 311 313 311 310 311
331 329 329 329 329 329 327 327 325 326 325 326 325 327 328 326 323 324 325 325 322 322 319 317 314 315 315 316 313 312 309 307 305 306 307 307 309 311 311 313 315 315 314 313 311 307 307 307 307 307 308 307 306 306 306 306 305 305 304 304 304 303 302 302 302 301 301 301 301 302 306 310 311 311
331 330 328 325 326 327 327 327 327 327 329 325 324 326 325 325 326 322 322 322 320 319 317 316 315 315 317 318 312 313 312 310 308 306 305 306 309 312 310 309 310 313 315 313 310 311 311 311 309 307 307 307 306 306 304 304 305 304 303 303 302 302 302 302 302 301 301 300 300 300 300 303 310 313
330 329 328 326 326 327 327 327 326 329 326 326 326 326 326 325 322 324 324 322 319 318 317 315 313 314 313 313 316 314 312 308 306 308 308 306 307 309 311 308 307 308 311 310 312 311 310 309 309 307 306 306 305 304 304 305 306 305 303 302 301 301 301 301 301 301 301 301 301 300 299 299 299 307
329 329 330 328 329 328 329 320 321 324 324 326 325 325 326 325 323 324 323 323 317 316 317 314 315 312 311 311 312 311 309 307 306 310 309 309 310 310 311 310 310 310 309 308 308 308 309 308 308 310 309 309 306 306 307 307 306 303 301 300 300 300 300 300 300 301 301 301 301 300 299 299 299 299
326 327 330 328 326 319 317 315 311 310 314 321 326 326 326 325 325 324 324 321 320 317 316 314 313 311 310 310 312 311 312 315 314 310 310 307 308 309 309 311 312 312 310 310 308 309 310 310 310 309 309 310 308 307 306 304 302 300 299 299 299 299 299 299 299 299 300 300 300 300 299 299 299 297
326 327 324 318 317 315 313 311 303 300 301 302 300 301 309 318 328 323 319 323 321 322 320 318 314 311 311 314 315 313 312 316 316 314 313 314 314 309 306 306 314 319 319 316 316 315 318 316 312 312 310 308 306 303 301 300 301 300 299 299 299 299 299 299 299 298 299 299 299 299 299 299 299 298
325 325 323 322 323 322 317 312 307 303 299 298 299 300 300 299 298 304 320 322 320 321 318 319 319 317 318 316 317 317 318 318 317 315 314 314 312 311 310 311 312 318 322 317 317 316 317 317 312 308 308 307 305 303 300 300 300 299 300 299 299 299 298 298 298 298 298 298 298 297 297 298 298 297
326 325 325 325 326 323 320 319 314 310 306 302 302 304 305 304 301 298 298 306 323 325 323 320 318 320 319 316 317 322 321 318 317 317 316 319 317 316 314 312 312 316 320 317 315 314 316 313 308 306 305 304 303 303 300 300 299 299 299 299 298 298 298 298 298 297 297 297 297 297 297 296 296 296
326 326 325 325 323 322 323 320 317 315 314 316 321 318 315 312 308 303 302 306 309 316 322 321 319 321 322 319 320 322 321 319 319 319 317 317 316 316 315 317 317 317 322 317 312 312 312 315 309 305 306 307 306 303 301 299 299 299 299 299 298 298 298 297 297 297 297 296 297 296 296 296 295 296
326 326 326 326 324 324 324 322 319 319 321 321 317 313 310 307 305 303 304 311 318 320 320 314 312 311 312 312 312 314 320 323 322 322 320 318 318 317 316 316 317 314 316 315 313 309 312 316 312 309 307 307 304 301 299 299 299 299 299 298 298 298 297 297 297 297 297 297 296 297 296 295 295 295
311 320 322 321 322 319 313 303 307 316 322 317 314 311 310 308 305 302 299 298 303 309 311 309 307 304 303 301 303 305 310 315 318 321 322 319 318 316 312 311 312 310 312 312 310 309 312 316 314 309 306 305 302 302 299 299 300 299 299 298 297 297 297 297 297 296 296 296 296 296 295 295 294 293
305 304 313 321 317 312 309 299 302 306 312 318 316 313 311 310 308 306 305 298 297 297 297 296 296 296 297 298 298 298 299 304 312 317 316 313 316 314 310 309 310 309 307 308 309 307 306 313 312 309 305 303 302 301 299 299 298 299 299 298 298 297 297 297 296 296 296 296 296 296 295 295 294 294
305 303 301 304 305 306 306 297 298 304 316 319 316 314 312 310 309 309 309 307 302 296 296 297 297 298 299 300 300 299 299 301 306 311 308 309 311 313 311 310 309 306 305 303 308 307 309 308 309 309 307 304 304 302 300 299 298 298 298 298 297 297 297 297 297 296 296 296 296 296 295 294 294 294
303 302 300 298 297 299 297 294 296 300 314 321 318 316 314 312 311 311 312 312 311 311 312 312 312 309 307 310 309 306 300 301 306 308 307 308 307 305 307 308 304 301 301 303 306 307 304 305 305 304 303 302 303 303 302 300 299 299 298 298 297 297 297 297 297 297 296 296 296 296 295 294 293 295
301 300 299 297 292 292 293 293 295 295 299 310 312 316 315 313 312 315 315 316 315 312 312 311 310 309 309 308 307 307 307 307 306 305 305 305 305 304 304 305 304 301 300 302 303 305 306 304 300 303 301 298 296 301 302 302 302 302 302 300 297 297 297 296 296 296 296 296 295 295 295 294 294 293
298 297 297 297 294 292 293 293 293 294 295 298 303 303 303 305 309 309 312 310 307 311 310 309 308 307 307 306 305 305 305 305 305 304 303 303 303 304 303 301 299 298 300 302 300 305 303 302 299 301 300 300 301 300 300 301 301 300 301 300 299 298 298 297 296 294 295 294 294 293 293 294 294 294
297 297 296 295 294 293 293 293 293 293 294 295 301 296 294 296 299 308 308 309 308 307 306 305 304 304 303 304 304 303 304 304 304 304 303 302 303 303 304 302 299 297 299 303 299 303 302 300 300 299 300 298 299 299 296 297 300 300 300 300 299 299 299 299 298 297 296 294 294 294 295 294 295 295
296 297 297 297 295 293 293 293 293 293 294 296 296 294 295 295 297 301 306 306 306 304 304 303 303 303 303 302 302 302 303 304 305 304 304 304 304 303 303 303 304 303 304 303 304 303 301 300 300 299 298 299 297 296 296 295 297 299 298 298 298 298 299 298 297 296 297 298 298 295 294 292 293 294
296 296 296 295 293 293 293 293 294 293 293 294 293 294 295 297 298 304 304 303 305 303 302 302 303 302 302 302 301 301 303 303 304 305 305 304 304 303 302 301 301 302 303 302 301 302 302 299 299 300 299 296 294 293 294 296 296 295 295 297 297 297 297 297 296 296 296 296 297 297 296 294 293 291
296 293 293 293 293 294 294 294 295 295 294 293 294 294 296 301 303 303 303 303 303 301 299 300 302 301 301 301 301 303 303 304 304 302 302 302 302 303 303 302 302 302 303 302 302 302 301 300 299 299 299 298 296 297 295 294 294 294 294 294 293 295 297 299 298 296 295 295 293 296 297 296 296 295
293 293 293 294 294 295 296 298 298 297 297 295 295 295 298 301 301 301 302 301 300 300 301 301 300 301 302 302 305 304 303 301 302 301 301 301 301 301 300 299 300 301 301 301 301 302 301 301 300 300 298 298 298 296 295 294 294 294 294 293 294 295 295 296 295 294 293 292 293 293 296 297 296 295
298 296 296 295 294 294 294 294 295 295 295 297 299 300 300 300 300 299 300 301 300 299 300 299 300 300 301 301 302 302 301 300 300 301 301 301 300 301 299 298 297 298 300 300 299 300 301 301 301 300 298 297 298 297 296 297 293 293 294 294 293 288 291 294 294 294 292 293 294 294 295 296 296 294
299 298 295 296 297 297 297 298 298 298 298 297 296 299 300 300 300 299 298 298 300 300 301 300 301 300 301 301 301 301 300 299 299 301 301 300 299 298 299 296 295 297 298 298 299 299 298 301 301 300 299 297 295 295 297 296 293 293 293 293 293 294 294 292 291 292 293 292 292 293 294 293 292 294
297 296 296 294 295 295 292 292 295 296 296 294 297 298 298 299 299 300 300 299 299 298 300 300 300 299 301 301 300 300 298 299 298 297 298 300 301 300 299 295 295 296 295 296 297 299 300 299 300 300 299 299 297 295 294 291 294 293 292 290 291 290 290 291 290 291 292 290 291 291 290 292 293 293
294 293 292 292 292 293 292 292 291 292 292 292 292 294 292 295 296 296 297 297 297 294 294 296 293 293 294 295 298 297 296 296 297 297 295 298 298 297 295 294 295 295 294 295 296 297 299 299 298 300 299 296 296 294 294 293 290 291 291 290 290 289 289 290 290 290 290 289 289 287 288 288 291 291
291 291 291 291 291 291 292 291 291 291 291 290 290 292 292 293 292 292 294 295 292 291 290 290 291 291 293 293 293 294 293 294 295 295 295 296 296 296 295 294 293 294 295 294 294 297 298 298 297 296 295 293 292 292 295 294 291 291 291 289 289 288 289 290 290 290 289 289 289 286 287 288 288 290
292 292 291 291 291 291 290 290 289 291 291 291 291 290 289 290 291 292 292 293 294 290 290 289 290 290 290 291 290 291 290 289 293 294 291 291 290 291 293 294 294 294 294 294 293 295 297 297 296 294 289 287 285 283 285 294 294 292 288 286 289 288 289 289 288 289 289 287 288 286 285 284 287 291
291 292 293 294 294 293 291 293 292 293 294 292 292 292 291 291 292 294 294 291 293 290 291 290 290 290 290 289 289 289 290 289 290 291 290 293 293 293 290 289 290 294 291 291 293 293 294 293 293 292 289 286 284 283 285 288 291 294 293 287 286 288 287 287 287 286 288 290 287 287 285 284 286 289
291 293 293 293 293 293 293 293 292 291 293 292 292 291 293 293 294 294 295 295 293 290 290 290 290 291 291 291 290 290 290 291 291 290 290 290 289 289 290 289 289 290 291 291 293 292 292 291 289 288 288 285 284 283 283 286 284 287 292 290 285 286 288 286 284 284 285 287 288 288 288 285 285 287
294 293 293 292 293 293 292 292 290 292 294 293 292 291 290 292 291 291 290 290 291 290 290 290 290 289 289 290 289 289 289 289 289 289 288 289 290 289 288 288 288 289 289 289 291 290 289 287 287 287 288 285 283 284 284 284 284 286 288 292 290 285 285 286 283 284 284 283 286 287 286 286 288 289
294 294 294 294 295 295 294 294 292 293 292 293 292 292 292 289 290 289 289 289 289 289 290 290 290 289 289 289 289 290 290 290 289 289 288 288 287 288 287 287 287 287 287 287 286 287 286 286 288 288 289 288 287 287 286 286 285 286 286 289 291 289 285 284 284 284 284 285 287 283 282 282 282 284
294 294 294 294 295 295 294 294 295 293 293 294 293 292 292 292 290 289 289 289 289 290 290 289 289 289 289 289 289 290 289 289 289 287 287 287 287 287 287 287 287 287 285 285 287 287 287 288 289 289 291 290 289 292 287 285 283 284 285 286 291 291 290 291 289 286 284 286 285 283 282 282 283 281
294 293 294 294 294 294 294 294 294 293 293 293 291 290 292 289 289 290 289 290 290 289 289 289 289 289 289 289 289 289 288 288 288 287 287 287 287 287 286 286 285 286 286 285 286 285 290 292 287 288 290 287 287 284 283 283 283 284 284 285 285 289 290 290 290 291 291 287 284 283 283 282 282 281
293 294 293 293 293 293 294 293 293 292 291 292 290 290 289 289 289 289 289 289 288 288 289 288 289 288 288 289 289 288 288 288 287 287 287 287 286 286 285 285 285 285 287 286 286 287 288 289 289 287 286 285 285 284 282 283 284 283 284 284 284 284 285 290 290 289 289 289 289 286 285 283 281 280
293 293 293 293 292 292 292 292 292 292 292 289 290 290 289 289 289 289 289 289 289 289 289 289 289 289 289 289 288 289 288 287 287 287 286 286 285 286 285 285 286 285 285 285 285 287 287 286 287 286 284 284 285 283 283 283 283 284 283 284 285 283 283 286 286 288 287 288 288 288 289 289 289 288
293 293 292 292 291 290 290 291 291 292 291 290 290 289 290 289 289 289 289 289 288 289 289 289 289 288 288 288 288 287 287 288 288 287 287 287 286 285 286 286 285 285 284 284 284 285 285 286 287 286 285 285 286 285 284 284 284 285 284 283 283 284 284 284 282 282 283 283 287 288 288 288 288 288
Wind_Speed
7 6 7 6 5 4 4 4 3 8 5 4 2 7 6 5 7 7 6 7 6 7 8 7 5 6 7 7 7 8 7 9 9 6 6 6 5 7 10 10 10 10 11 11 11 12 11 11 12 12 13 12 11 10 10 9 8 7 8 8 7 8 8 7 7 8 9 8 8 7 6 5 5 5
6 6 5 4 4 3 4 5 2 6 8 6 4 3 2 5 4 5 7 4 4 5 6 7 7 6 9 8 8 7 7 13 11 9 8 7 6 9 10 10 10 10 11 11 11 11 11 11 12 12 12 11 11 10 9 9 8 7 9 9 9 8 8 7 8 9 9 8 7 7 6 5 4 3
5 5 5 4 4 3 2 3 4 4 7 6 5 2 4 3 3 2 2 6 4 3 4 7 9 9 11 9 7 8 8 11 11 3 9 9 11 11 8 9 10 10 10 10 11 10 11 11 11 11 10 10 8 9 9 8 7 8 8 8 8 8 8 8 8 8 8 7 7 6 6 5 3 3
5 5 6 6 6 4 3 3 4 4 4 5 5 5 5 4 5 4 2 2 6 2 3 7 10 9 9 8 7 8 7 9 15 2 8 11 13 7 5 7 9 9 10 10 11 11 11 10 11 10 10 10 10 10 10 9 9 8 9 9 9 8 8 8 7 7 7 7 6 6 6 5 4 3
6 6 6 6 6 5 5 4 3 4 3 3 5 6 7 6 5 8 7 6 4 1 1 3 6 9 8 7 7 9 6 7 6 3 10 11 7 7 5 5 8 10 10 10 10 11 12 11 12 12 11 10 10 10 9 10 9 8 10 10 9 8 8 7 7 5 5 6 6 6 6 6 5 4
6 5 6 6 6 6 6 5 5 4 4 5 5 4 6 5 5 6 7 5 6 5 2 1 0 9 10 7 11 9 8 6 6 9 7 8 8 7 7 6 6 11 10 10 10 10 11 11 10 11 11 11 10 10 9 9 9 7 9 9 8 7 7 7 6 5 4 7 7 7 6 5 6 6
6 5 5 6 5 4 4 5 5 5 4 4 5 4 4 6 3 2 3 6 6 7 5 5 6 6 7 4 11 10 8 6 7 9 8 7 8 8 8 7 6 10 12 12 11 10 10 10 9 10 10 10 10 10 9 9 9 8 8 9 8 8 7 7 7 7 5 6 7 7 7 6 6 8
7 6 6 6 6 6 4 2 3 3 4 1 3 1 3 3 5 1 2 6 6 7 7 5 5 4 5 3 10 8 7 7 6 6 7 7 7 8 9 9 7 10 13 12 12 11 10 10 9 10 10 9 9 9 9 8 8 7 7 8 7 7 7 6 6 6 6 6 6 8 8 8 8 9
7 6 5 4 4 2 0 1 2 1 4 1 3 3 2 2 2 2 0 3 6 6 6 6 5 7 4 5 10 10 9 7 6 5 8 7 8 8 10 8 8 13 14 13 12 10 10 10 10 9 9 9 9 9 8 8 8 7 7 6 5 5 5 5 5 5 6 6 6 7 9 9 10 10
3 5 3 3 5 4 4 4 4 2 5 7 7 5 5 5 5 2 4 2 4 6 8 4 5 5 6 4 8 10 9 8 7 5 7 6 6 6 5 6 6 5 5 5 5 6 7 9 10 10 10 10 10 9 8 7 6 5 3 3 3 3 3 4 5 5 6 7 7 7 8 6 10 11
3 5 8 8 5 6 6 7 2 5 4 8 7 6 8 8 5 3 5 5 5 4 4 5 6 5 4 3 7 10 9 8 7 6 7 6 4 5 9 6 5 5 5 6 9 10 11 11 9 11 12 12 10 8 6 4 3 2 2 2 2 3 4 5 6 6 7 7 8 8 8 8 8 11
4 5 6 7 7 6 6 6 9 7 4 5 5 4 4 6 9 8 6 5 8 6 5 5 6 4 3 2 0 6 8 7 5 6 6 7 5 7 7 7 8 5 6 7 5 5 6 7 10 10 10 10 6 6 5 5 4 4 2 1 2 3 4 4 5 6 6 6 7 7 7 7 7 8
6 4 4 5 4 6 8 10 8 6 6 6 6 3 4 6 5 3 2 2 5 5 5 7 5 5 4 3 2 3 5 6 7 4 6 4 6 7 7 8 8 9 9 6 6 7 8 8 6 4 2 3 7 6 4 5 5 5 4 4 2 3 3 4 4 5 5 6 6 7 7 7 7 8
5 3 3 2 4 6 7 11 11 9 4 7 6 6 5 5 5 3 2 2 2 6 5 6 6 6 5 5 4 3 2 2 3 6 6 7 6 7 6 5 6 9 8 7 7 5 4 3 4 4 4 5 7 6 4 7 7 9 10 9 9 8 7 6 4 4 4 4 5 5 6 6 7 7
5 4 7 7 7 6 6 7 11 10 11 13 13 11 9 6 3 4 4 1 1 3 2 1 5 6 6 5 4 5 6 2 2 4 4 4 4 5 6 5 1 4 3 5 6 5 4 8 8 7 7 6 7 8 8 12 13 11 11 12 11 10 10 10 10 9 8 7 5 5 5 5 6 6
6 6 6 5 6 6 4 7 8 10 13 15 15 15 15 16 15 9 4 2 3 4 1 6 5 3 4 3 5 2 2 2 3 4 3 1 1 2 3 2 3 3 4 7 8 7 5 7 8 8 6 6 7 8 12 14 14 13 12 12 12 12 12 11 11 10 10 9 8 6 4 4 4 5
4 4 6 6 5 7 6 5 8 8 10 13 16 16 16 16 14 12 11 5 6 3 5 5 1 3 2 3 3 1 1 2 3 2 5 6 7 6 6 2 1 1 3 6 6 7 4 7 6 9 5 6 6 7 11 15 14 14 14 13 13 13 13 12 11 11 10 10 9 8 6 4 2 3
2 3 2 4 5 7 8 6 11 11 12 9 8 9 9 9 11 13 12 10 7 10 7 4 2 2 4 5 4 5 2 2 2 1 5 5 5 6 5 3 3 3 4 4 3 4 3 6 9 8 6 7 7 5 9 14 14 15 15 15 15 14 13 11 11 10 10 10 9 9 7 6 3 1
5 5 6 6 3 2 2 6 10 11 9 9 10 11 10 10 10 9 9 7 6 7 8 8 7 7 9 8 6 6 6 4 2 1 3 6 6 6 3 4 4 4 4 4 2 2 3 2 8 8 7 6 7 5 7 13 14 14 15 15 15 15 13 12 10 9 10 10 10 10 9 7 6 4
12 9 7 5 6 3 5 6 7 6 11 11 12 11 10 10 10 10 6 10 13 11 10 9 8 8 9 10 9 8 6 4 3 2 7 8 7 6 5 4 1 3 4 7 4 2 3 4 7 8 7 7 7 5 4 6 12 13 14 14 15 14 14 12 11 11 11 11 11 10 8 7 6 6
13 12 11 7 6 5 6 7 12 16 15 10 11 11 10 9 10 8 7 11 15 17 17 16 15 14 16 16 16 16 16 11 6 3 6 3 4 6 5 3 3 3 2 5 4 1 1 6 10 8 8 7 8 6 5 4 6 11 13 15 14 14 13 13 11 10 10 11 9 9 6 5 5 7
13 16 24 17 9 9 7 11 16 11 11 11 10 10 10 9 9 7 6 6 7 10 13 13 14 14 14 16 16 17 17 17 12 7 6 4 1 7 6 5 5 3 6 5 5 2 0 4 8 10 6 5 5 7 5 5 4 7 11 13 13 13 13 13 11 10 10 11 9 8 7 5 3 1
12 12 14 20 16 12 12 21 20 19 10 8 8 8 9 9 8 4 4 6 7 6 6 6 7 9 10 9 9 11 16 15 12 8 5 4 6 4 5 9 7 4 3 4 4 2 2 5 5 4 8 7 5 4 7 6 5 5 6 5 6 11 13 12 10 9 9 10 9 7 6 4 3 4
11 11 12 15 20 22 23 23 24 22 18 12 10 7 8 9 7 3 3 3 3 4 6 7 8 7 7 7 7 6 7 8 8 8 7 6 5 5 5 5 5 5 1 2 3 2 2 4 3 3 4 5 5 6 6 5 6 6 6 6 4 6 10 9 6 8 9 8 6 4 3 4 1 1
10 10 11 11 18 24 24 23 21 19 20 18 13 11 9 5 6 8 6 9 8 6 6 6 6 5 5 6 6 6 6 6 5 6 6 6 6 6 7 8 8 6 1 2 4 3 4 4 4 4 6 3 4 6 2 6 6 5 5 5 4 4 5 5 4 4 5 6 6 4 2 3 4 4
10 10 10 11 16 22 23 22 22 20 17 19 13 12 15 17 17 10 8 7 7 6 6 5 5 5 5 6 6 6 6 5 5 5 6 7 7 7 6 6 7 6 4 4 7 5 3 4 4 5 4 3 4 6 4 3 4 6 5 5 6 5 5 6 5 3 4 2 3 3 1 1 1 2
8 8 10 12 18 20 21 20 21 19 21 17 14 19 18 16 15 11 7 6 6 6 5 5 4 5 6 5 5 5 5 4 4 6 6 6 7 8 8 7 5 6 3 3 5 6 6 3 3 6 3 3 2 2 5 3 4 4 6 5 4 4 6 6 6 6 6 2 2 5 5 1 2 2
9 10 11 12 19 19 19 19 19 20 19 16 20 19 19 17 13 8 7 5 5 5 6 7 7 6 6 6 5 4 4 6 5 5 4 4 5 6 6 7 8 7 6 4 4 8 8 6 6 4 3 4 3 5 5 7 5 3 3 3 5 5 6 5 4 4 3 3 0 4 2 2 3 3
10 12 16 18 19 19 19 18 17 16 18 21 20 20 18 15 10 10 9 9 8 7 6 5 5 6 6 5 3 3 3 3 5 4 4 4 4 4 5 6 6 7 7 7 8 7 7 6 6 5 6 5 6 5 5 3 5 3 4 5 4 3 2 1 1 4 2 1 1 1 5 6 5 6
15 15 15 18 18 17 15 12 11 10 11 16 17 17 15 10 10 9 9 9 8 7 6 6 6 5 3 2 1 1 2 2 1 3 4 3 4 4 5 6 5 5 6 7 6 6 6 6 6 5 6 6 5 5 4 5 4 4 5 6 1 2 2 1 2 5 3 1 2 2 4 5 5 3
9 11 11 11 13 12 15 15 13 12 11 10 9 8 8 7 6 6 5 6 6 7 7 6 6 5 3 2 3 2 2 2 1 3 5 5 5 4 3 7 5 5 5 5 5 5 4 5 5 6 5 3 5 4 3 5 4 2 3 3 4 2 1 2 2 5 3 2 2 1 1 4 3 2
8 9 10 12 10 11 11 10 9 8 8 8 7 7 7 7 7 7 9 8 6 6 3 3 2 1 1 1 3 1 3 3 4 6 3 2 1 2 5 6 4 4 3 3 5 5 5 4 5 5 4 3 3 3 2 4 4 3 1 3 2 0 4 7 8 6 6 5 4 3 2 3 2 1
9 9 10 9 10 10 9 8 9 8 8 7 7 9 7 6 7 6 6 6 5 5 5 2 3 4 3 1 2 4 5 5 4 5 5 4 2 2 5 6 5 5 4 4 2 3 3 3 4 4 3 3 6 5 3 3 2 1 2 6 7 7 5 6 6 6 7 7 5 5 5 6 7 8
8 8 8 8 8 8 8 7 6 6 5 6 7 7 7 7 7 6 5 5 5 6 6 7 6 6 5 6 5 4 4 4 4 4 5 3 4 3 4 5 6 5 6 6 5 4 3 3 3 4 4 6 6 6 5 5 4 5 7 7 7 6 5 5 6 6 6 5 3 6 5 6 6 6
7 7 7 7 6 6 6 5 5 5 5 4 4 5 6 6 6 5 6 6 5 5 5 5 4 5 6 5 6 5 3 2 4 4 4 5 7 4 2 6 3 4 4 4 4 4 7 5 5 5 4 4 4 3 7 7 5 5 6 7 6 7 7 6 6 6 4 5 6 5 6 6 5 3
6 5 5 5 5 6 5 4 4 4 4 3 3 3 4 3 3 5 4 4 5 4 4 4 4 4 4 4 5 4 4 5 2 2 4 3 4 5 6 1 4 3 3 3 4 1 5 8 6 6 5 2 3 3 4 7 9 4 6 4 6 4 3 3 4 4 5 6 5 6 5 5 4 5
5 5 6 5 5 5 4 5 4 4 4 3 3 2 2 1 1 1 2 3 2 1 1 2 3 3 3 3 3 3 3 3 2 1 2 2 1 1 2 4 4 1 3 4 3 3 7 6 4 3 3 4 6 5 2 1 8 8 6 6 3 3 3 3 5 6 6 5 6 7 4 4 4 6
4 5 5 5 5 4 5 5 6 5 5 6 5 5 5 4 4 4 2 3 3 1 2 2 1 1 1 1 1 2 2 3 2 2 1 1 3 4 4 6 6 5 3 3 4 8 7 7 6 6 6 6 6 4 1 1 1 6 7 6 5 3 3 5 5 5 5 5 5 5 4 7 6 6
5 5 5 4 4 3 5 5 4 5 5 5 5 5 4 6 6 5 5 4 5 4 4 2 3 3 3 2 4 3 2 3 3 1 6 5 4 4 6 5 3 3 6 8 7 7 7 7 6 6 6 5 3 2 2 4 1 0 5 7 6 4 3 3 3 3 3 3 5 4 3 2 5 7
5 5 4 4 4 4 3 3 3 2 2 3 4 5 4 4 4 4 4 4 4 5 5 1 3 4 5 3 1 2 1 6 6 5 5 6 6 5 4 4 3 3 6 6 7 6 6 4 4 3 2 2 1 1 4 6 2 0 2 6 6 4 3 1 1 0 1 2 1 3 4 3 4 4
4 4 4 5 5 4 4 5 3 3 4 5 4 5 5 4 4 3 4 4 4 5 6 4 3 4 4 3 4 2 2 6 6 6 5 4 4 3 4 5 5 2 6 6 6 5 5 4 2 2 0 2 3 4 2 4 4 2 1 1 3 5 1 5 1 0 0 0 2 1 1 1 1 2
5 4 4 4 5 5 6 6 6 6 7 6 6 4 4 3 2 4 5 3 4 5 5 5 5 5 3 4 4 1 4 5 4 4 3 2 1 0 4 7 5 6 6 6 5 4 4 4 2 2 0 1 3 2 3 4 5 6 3 1 3 5 8 8 6 5 2 0 0 0 1 2 2 1
4 4 4 4 4 4 5 5 4 5 4 6 5 4 5 6 5 6 5 4 5 6 5 6 6 5 5 3 4 4 5 5 5 5 5 5 4 3 5 4 5 4 1 3 5 3 2 3 1 0 2 2 3 5 3 3 2 4 4 2 1 2 4 7 8 1 4 1 1 4 3 2 0 1
6 4 4 4 4 4 3 5 5 4 5 4 4 4 5 4 4 5 4 5 5 6 5 6 5 5 6 7 6 6 5 5 5 4 3 3 4 4 3 1 0 2 5 4 2 1 2 3 1 2 5 3 2 3 2 3 3 2 2 2 0 1 3 1 1 1 2 4 8 8 10 7 6 4
4 4 3 3 4 4 4 3 3 2 1 2 3 3 4 4 4 4 4 5 5 5 5 4 5 5 5 4 5 5 5 5 3 1 2 2 1 2 1 3 2 3 4 3 5 4 3 1 0 1 4 2 1 3 4 2 1 1 1 2 1 1 1 2 4 2 3 5 9 11 10 9 7 8
Wind_Direction
175 177 176 173 169 185 204 195 152 125 207 234 242 186 180 170 153 168 173 178 157 194 173 144 139 146 118 126 120 128 148 152 165 146 137 136 132 138 134 136 135 130 131 133 135 133 132 131 132 134 135 135 137 138 140 140 138 136 126 112 111 110 107 101 104 117 128 117 104 97 98 98 90 89
180 163 176 170 170 201 196 180 159 130 167 203 194 205 86 83 165 181 172 160 163 178 171 141 149 150 134 140 150 148 147 168 175 156 142 132 131 137 130 132 131 133 133 133 135 138 139 141 141 141 141 143 142 146 146 145 148 150 150 143 136 134 131 129 131 135 130 123 124 126 125 116 109 96
165 165 172 171 186 220 220 162 169 169 156 175 182 151 92 174 177 205 137 147 209 170 175 142 157 165 151 161 160 140 155 177 189 152 137 134 137 134 130 133 136 138 140 141 143 145 148 150 149 150 149 144 142 148 156 151 157 169 161 147 151 151 149 150 153 155 149 147 147 149 145 142 136 116
166 176 179 179 189 199 212 201 182 163 158 162 175 145 140 196 184 116 62 214 164 177 160 150 161 158 144 152 153 137 155 171 192 212 137 137 137 130 140 143 146 147 147 154 156 155 153 156 158 159 158 154 156 161 165 166 170 177 153 160 165 163 160 160 164 176 166 163 165 163 166 161 160 144
176 183 184 184 187 186 206 199 174 157 171 160 141 158 167 174 168 149 158 212 139 334 115 150 151 144 140 166 147 140 145 162 185 133 136 143 149 147 151 160 165 160 162 164 164 159 162 165 167 161 160 160 164 166 169 170 179 173 160 167 173 168 166 167 170 194 183 172 180 173 187 183 178 172
183 180 184 185 183 203 205 188 187 172 174 149 163 172 165 171 174 174 159 161 144 141 186 73 181 145 169 166 139 143 143 160 150 135 147 156 162 162 155 158 178 174 168 168 166 164 169 174 169 160 163 163 166 169 173 175 181 174 165 170 176 177 174 178 176 193 202 188 187 186 195 194 184 192
179 176 182 178 186 195 217 186 189 170 166 158 183 172 186 161 164 177 153 139 142 151 169 170 195 150 184 150 134 142 150 164 155 151 158 173 179 164 160 166 165 178 170 172 169 172 175 178 172 167 169 169 171 173 178 179 182 183 171 179 184 186 186 187 186 191 214 214 190 191 195 192 193 199
176 184 184 182 183 179 206 214 163 120 93 93 183 201 57 46 144 260 138 153 141 157 161 178 153 156 180 126 129 136 154 166 191 164 164 178 191 160 165 164 164 177 175 172 174 175 177 177 177 173 176 176 176 179 181 182 185 186 182 183 190 195 196 199 199 197 209 232 233 209 195 194 203 212
169 175 185 181 175 125 106 21 340 107 129 47 32 50 64 257 8 357 220 171 151 146 153 180 156 161 180 169 144 151 154 172 197 177 160 181 203 164 169 160 161 169 172 170 172 178 178 182 184 181 180 182 185 184 184 188 189 190 189 183 189 201 209 216 220 220 223 228 239 249 232 197 211 221
152 154 163 68 70 118 158 100 240 310 148 160 192 169 165 174 181 194 264 151 162 149 178 154 129 159 183 192 148 159 155 163 185 172 167 189 197 155 115 117 124 133 165 158 175 182 186 193 191 189 188 190 191 188 189 190 188 184 176 177 189 204 221 230 234 236 237 235 236 238 252 238 210 224
153 111 110 121 158 177 166 139 146 229 212 129 178 159 141 138 106 290 213 195 163 173 172 137 148 168 185 181 153 161 156 162 179 162 164 198 173 129 125 128 127 153 168 193 184 183 188 188 191 198 198 197 194 184 171 168 148 118 141 184 210 225 232 238 242 244 243 243 242 242 241 246 242 236
126 118 130 150 182 179 175 149 175 211 131 159 130 119 116 133 154 190 210 187 166 179 168 142 163 166 152 150 354 132 145 151 196 163 154 180 162 146 140 152 153 168 159 174 181 205 198 199 200 201 205 206 172 125 114 111 123 156 167 208 274 292 295 288 281 275 270 265 260 255 254 252 256 261
90 95 122 139 185 188 176 164 191 183 171 146 130 138 140 155 162 194 224 151 144 177 155 148 151 137 129 152 200 115 143 158 195 169 146 172 157 158 147 162 167 164 175 183 177 190 190 191 187 172 167 155 124 121 133 162 120 75 78 56 25 341 319 303 292 282 275 271 267 264 256 253 250 253
111 153 84 66 124 148 133 151 139 126 149 133 132 153 143 150 125 92 45 360 178 161 156 147 137 136 160 175 178 137 144 185 159 142 153 165 176 150 168 172 177 172 165 173 184 184 157 141 120 157 150 116 134 123 87 87 99 91 86 79 70 59 46 31 15 347 315 294 280 266 258 250 245 245
124 114 92 91 95 91 109 117 117 113 108 96 86 77 82 73 100 125 99 310 48 58 77 80 140 151 166 172 155 148 169 203 127 138 140 137 135 158 153 186 16 28 149 161 105 75 109 112 92 71 78 91 93 100 108 112 107 104 93 85 79 69 56 48 40 30 21 4 337 308 284 263 248 238
128 120 111 130 129 119 117 140 111 103 100 99 94 86 79 73 60 72 149 173 91 54 28 46 349 114 104 92 71 51 46 17 35 107 100 115 98 95 107 97 98 345 9 96 102 98 89 97 99 91 84 103 107 115 124 114 106 102 100 91 83 76 68 57 47 39 31 22 12 357 327 291 264 243
108 123 132 158 132 118 186 155 117 111 103 100 100 93 82 66 61 52 44 58 135 116 112 121 59 45 104 85 55 84 84 59 18 23 61 43 40 63 76 75 119 7 51 71 88 110 104 93 98 96 79 80 84 107 110 113 114 110 105 100 90 81 72 64 56 47 39 33 24 15 6 354 302 243
82 98 68 70 90 148 206 157 127 121 121 122 94 74 60 57 43 35 26 39 94 110 96 65 104 17 49 72 51 32 70 89 36 47 89 100 92 83 94 62 67 26 28 102 114 87 91 138 125 117 127 126 125 123 131 125 119 113 109 102 94 87 79 72 65 55 47 40 32 26 21 16 12 9
47 71 46 58 67 311 254 146 140 137 134 100 93 82 67 60 55 40 20 21 48 67 79 83 67 58 59 63 52 34 23 84 185 139 125 129 120 110 94 61 69 60 19 43 87 138 175 153 119 127 138 132 118 124 136 122 121 117 112 107 103 97 89 83 76 67 60 50 40 33 31 29 33 53
19 20 54 66 82 73 325 355 125 148 104 100 98 92 87 78 69 58 23 59 72 78 85 88 85 78 81 80 74 58 50 34 8 116 114 105 113 113 105 121 9 83 33 39 44 111 204 174 123 131 147 138 124 128 118 127 126 124 120 112 104 99 95 86 77 70 64 56 48 40 38 46 66 80
42 27 22 30 38 49 12 336 118 109 103 105 100 96 92 89 85 80 61 51 76 90 91 92 93 87 73 64 56 48 44 37 14 51 88 78 141 138 143 152 117 92 52 30 16 56 199 152 144 144 156 150 134 135 144 161 158 131 116 106 104 102 96 93 86 82 83 76 68 67 64 68 99 116
48 38 37 37 26 23 26 38 50 67 104 104 104 106 102 96 96 102 102 93 73 84 98 101 97 89 82 72 61 54 47 39 36 63 64 334 254 166 160 136 111 85 42 8 346 24 188 99 126 148 152 104 122 139 147 151 148 116 102 111 118 112 104 99 95 88 84 81 79 78 71 85 87 198
45 42 34 35 36 37 31 46 41 40 55 91 105 111 103 96 99 112 123 106 108 109 98 87 77 65 63 64 62 57 53 47 48 49 47 26 43 50 101 123 121 76 11 321 323 48 359 73 31 88 145 138 144 139 147 157 160 143 123 117 107 106 104 101 99 96 83 79 75 73 77 74 5 329
50 44 42 36 35 42 33 41 51 43 41 63 49 64 91 101 96 103 93 99 109 90 82 79 73 71 70 74 63 56 54 51 47 48 48 46 50 66 68 93 95 106 113 285 345 29 339 56 65 37 104 128 143 157 167 156 140 147 136 114 106 110 104 100 89 94 99 98 98 83 91 98 94 5
50 42 44 42 41 49 44 39 34 41 50 58 59 51 59 48 72 73 78 77 84 86 88 92 95 97 86 77 72 66 61 56 51 51 48 47 46 58 86 96 90 97 106 308 328 41 56 65 63 47 36 53 89 115 104 105 115 99 97 112 126 152 141 133 126 108 109 116 109 112 73 46 76 56
60 58 45 50 43 50 50 45 41 26 36 51 54 45 48 50 55 55 52 49 47 51 55 62 69 78 79 73 67 67 68 57 53 63 63 55 50 50 60 92 105 103 76 27 42 41 67 56 56 63 46 46 35 108 98 84 107 107 106 93 86 80 68 69 84 122 146 144 128 134 169 206 343 112
60 60 59 51 51 53 52 48 43 36 30 38 39 38 38 40 50 55 53 51 54 57 65 70 79 74 79 77 68 66 66 58 55 57 56 60 63 61 56 56 81 105 119 64 42 55 50 75 62 80 63 56 28 64 112 103 63 53 58 69 84 71 65 66 63 52 40 68 136 141 150 214 242 307
57 53 54 55 58 54 50 44 45 42 40 38 34 35 35 35 35 40 42 44 43 43 42 40 38 47 62 73 70 70 70 64 61 66 70 68 76 86 79 66 56 48 48 44 59 65 65 62 43 20 64 71 59 87 97 90 94 73 93 57 75 66 70 66 75 72 61 350 346 161 146 247 249 199
66 67 63 58 56 55 51 46 43 42 39 36 33 33 34 37 38 33 31 29 32 41 53 61 58 56 50 58 67 63 71 73 71 68 71 88 85 88 92 85 74 66 58 45 51 66 71 69 53 33 24 48 68 68 73 83 111 112 95 71 29 10 66 129 155 126 152 183 275 270 155 169 173 194
67 64 63 62 59 55 52 48 45 43 38 36 34 31 30 35 35 37 41 32 32 33 33 40 48 50 54 38 25 101 91 71 125 142 139 124 126 126 107 86 69 73 76 62 53 64 67 66 65 50 50 31 59 65 60 71 67 90 79 85 109 322 192 211 192 152 161 217 235 247 173 152 150 156
51 52 55 64 64 65 59 58 55 51 39 37 35 30 25 26 31 35 49 44 33 29 24 26 32 26 21 350 353 354 94 138 159 153 159 169 168 180 120 106 93 66 54 72 74 68 67 70 70 60 60 30 34 48 28 79 100 74 105 163 149 157 239 208 192 145 189 218 244 218 112 129 159 189
42 46 44 44 41 44 44 43 43 41 40 40 36 31 25 22 22 25 32 40 31 19 6 6 345 325 314 289 278 294 57 35 16 357 359 88 138 135 133 99 96 101 77 48 73 81 79 62 77 72 74 74 51 352 348 124 120 131 238 256 217 234 46 29 20 12 352 347 347 74 54 53 70 349
45 44 44 40 41 44 43 38 37 31 33 28 30 33 28 25 23 27 33 33 20 13 350 315 312 305 268 262 38 56 45 17 9 7 360 9 53 1 53 104 140 131 130 129 155 168 118 80 83 110 100 51 50 48 35 78 74 86 48 45 51 48 34 27 24 3 360 10 13 37 23 21 35 51
61 49 48 43 43 41 41 39 35 30 31 32 33 28 25 26 25 26 24 25 12 4 12 14 16 2 0 23 42 55 35 359 358 9 23 359 25 47 110 118 117 122 138 155 173 166 123 119 99 94 77 74 71 55 48 59 66 53 52 53 50 45 23 23 13 1 5 339 12 34 28 20 25 63
53 50 51 47 47 47 48 43 36 30 35 34 39 33 30 31 27 23 19 359 7 16 11 10 14 14 17 25 22 29 19 10 27 15 337 11 12 356 53 98 108 152 137 145 176 174 138 143 127 97 82 63 49 27 45 50 62 47 57 52 61 46 20 8 354 343 353 354 21 40 23 26 6 38
54 53 59 51 48 50 46 31 39 46 55 40 60 63 47 30 28 33 14 348 37 21 18 21 20 20 17 24 17 14 12 354 1 37 11 41 56 21 5 77 142 168 157 163 133 107 127 170 155 145 135 128 97 52 352 18 48 50 75 58 54 61 28 356 347 345 8 11 19 55 44 359 339 339
43 41 48 52 46 42 37 26 21 14 27 37 27 81 112 81 2 334 345 331 22 37 338 58 35 360 347 11 32 359 344 347 4 38 357 3 16 356 17 34 9 2 68 41 37 72 59 73 58 79 111 134 120 126 134 356 6 15 103 99 73 71 59 18 11 15 352 20 17 32 15 2 347 347
60 60 59 51 40 26 21 19 24 23 22 16 24 26 27 7 353 347 329 330 317 331 317 309 249 276 285 254 271 264 274 285 328 345 281 310 53 359 15 40 13 3 51 54 60 66 64 61 55 47 65 67 84 93 77 349 357 355 5 95 101 77 67 54 28 21 351 359 29 355 14 27 5 343
43 32 40 52 44 37 35 36 33 25 18 23 20 9 18 35 22 14 16 13 360 356 340 356 343 292 270 263 254 237 247 290 311 94 62 33 42 35 25 22 47 29 57 45 43 56 54 56 52 46 59 84 101 148 160 144 99 307 3 59 97 88 41 91 47 22 10 11 333 345 349 28 359 353
56 52 34 32 30 24 21 38 47 25 15 32 45 360 29 40 18 4 359 359 2 355 330 316 345 343 346 324 52 109 74 72 58 51 45 40 36 34 26 12 11 51 64 62 68 67 67 65 61 63 50 94 162 197 115 116 128 50 33 41 49 97 116 86 85 87 343 290 346 42 2 5 7 320
52 46 28 15 16 18 21 11 27 24 8 21 37 30 25 24 6 348 335 344 359 349 334 312 358 333 285 310 337 320 67 67 69 61 59 51 32 22 354 358 348 32 84 76 85 98 110 131 153 152 211 329 337 8 12 95 124 206 154 199 299 312 336 138 182 137 184 302 42 78 19 317 301 336
40 50 44 32 20 8 9 3 8 27 22 18 14 13 16 11 347 329 312 323 348 324 321 338 343 317 327 310 297 35 75 84 104 110 123 152 167 128 45 39 22 30 59 78 96 117 142 143 155 146 292 356 331 79 76 94 144 174 188 246 298 292 276 276 243 158 134 111 106 55 308 331 357 11
39 45 36 36 35 28 12 5 15 25 21 13 359 357 353 345 351 0 352 354 336 326 325 331 321 320 307 325 42 54 73 71 58 45 48 48 39 57 68 39 28 10 45 128 113 106 82 96 108 126 122 94 69 90 69 0 26 94 110 142 213 261 270 247 256 112 115 199 266 234 201 179 130 356
18 31 46 38 36 38 10 8 20 19 29 9 347 339 344 356 358 8 7 351 348 350 353 8 11 18 20 7 34 59 65 61 58 45 47 55 66 59 75 96 318 27 38 54 47 137 145 121 174 94 79 51 90 91 90 45 19 64 135 143 176 2 337 277 296 357 339 286 257 260 268 248 216 212
34 25 25 39 38 26 19 11 17 47 52 337 331 346 347 359 351 353 1 348 346 354 358 12 5 3 1 14 27 31 38 27 11 354 23 10 84 127 91 56 34 52 73 58 47 2 24 38 250 62 91 85 28 149 151 135 183 321 288 137 113 344 324 41 8 308 257 275 261 247 248 252 254 259